Location: Amon Carter Post Office
(32.8281°N, 97.0484°W)
Time: 13:16:33
(UTC+00:00)

Sich 1 - Pass Details

Date: 12 July 2022
Orbit: 593 x 622 km, 82.5° (Epoch: 12 August)

Event Time Altitude Azimuth Distance (km) Brightness Sun altitude
Exits shadow 07:41:45 11° 74° (ENE) 1,837 5.8 -32.9°
Drops below altitude 10° 07:42:33 10° 64° (ENE) 1,933 6.1 -32.8°
Sets 07:46:04 0° 33° (NNE) 2,836 7.5 -32.6°
